Hourly Weather Yulara

Today, 3 December, Thursday

Time Temperature Precipitation Wind Pressure Humidity
00:00 +26°C° 0 mm 6 mps 719 mmHg 36%
01:00 +24°C° 0 mm 6 mps 719 mmHg 35%
02:00 +24°C° 0 mm 6 mps 719 mmHg 33%
03:00 +24°C° 0 mm 6 mps 718 mmHg 30%
04:00 +24°C° 0.1 mm 6 mps 719 mmHg 28%
05:00 +24°C° 0.1 mm 6 mps 719 mmHg 27%
06:00 +24°C° 0.1 mm 6 mps 719 mmHg 26%
07:00 +26°C° 0 mm 6 mps 719 mmHg 24%
08:00 +27°C° 0 mm 6 mps 720 mmHg 22%
09:00 +28°C° 0 mm 6 mps 720 mmHg 20%
10:00 +29°C° 0 mm 5 mps 720 mmHg 20%
11:00 +30°C° 0 mm 5 mps 719 mmHg 19%
12:00 +32°C° 0 mm 4 mps 719 mmHg 19%
13:00 +33°C° 0 mm 4 mps 718 mmHg 19%
14:00 +34°C° 0 mm 5 mps 718 mmHg 19%
15:00 +36°C° 0 mm 5 mps 718 mmHg 18%
16:00 +36°C° 0 mm 5 mps 717 mmHg 19%
17:00 +36°C° 0 mm 5 mps 717 mmHg 19%
18:00 +36°C° 0 mm 5 mps 717 mmHg 20%
19:00 +34°C° 0 mm 5 mps 717 mmHg 22%
20:00 +33°C° 0 mm 5 mps 718 mmHg 23%
21:00 +32°C° 0 mm 4 mps 718 mmHg 25%
22:00 +30°C° 0 mm 5 mps 718 mmHg 27%
23:00 +30°C° 0 mm 6 mps 717 mmHg 29%

Tomorrow, 4 December, Friday

Time Temperature Precipitation Wind Pressure Humidity
00:00 +29°C° 0 mm 7 mps 717 mmHg 31%
01:00 +28°C° 0 mm 7 mps 717 mmHg 34%
02:00 +28°C° 0 mm 6 mps 717 mmHg 37%
03:00 +27°C° 0 mm 6 mps 716 mmHg 41%
04:00 +27°C° 0 mm 6 mps 717 mmHg 40%
05:00 +27°C° 0 mm 6 mps 717 mmHg 39%
06:00 +27°C° 0 mm 6 mps 717 mmHg 38%
07:00 +29°C° 0 mm 6 mps 717 mmHg 32%
08:00 +33°C° 0 mm 7 mps 718 mmHg 26%
09:00 +35°C° 0 mm 8 mps 718 mmHg 20%
10:00 +38°C° 0 mm 8 mps 717 mmHg 18%
11:00 +41°C° 0 mm 7 mps 717 mmHg 15%
12:00 +44°C° 0 mm 6 mps 716 mmHg 13%
13:00 +44°C° 0 mm 6 mps 715 mmHg 13%
14:00 +45°C° 0 mm 5 mps 714 mmHg 12%
15:00 +44°C° 0 mm 4 mps 713 mmHg 12%
16:00 +44°C° 0 mm 4 mps 713 mmHg 12%
17:00 +44°C° 0 mm 3 mps 713 mmHg 12%
18:00 +43°C° 0 mm 3 mps 713 mmHg 12%
19:00 +41°C° 0 mm 2 mps 713 mmHg 14%
20:00 +40°C° 0 mm 1 mps 713 mmHg 16%
21:00 +37°C° 0 mm 1 mps 713 mmHg 18%
22:00 +37°C° 0 mm 1 mps 713 mmHg 19%
23:00 +36°C° 0 mm 1 mps 713 mmHg 20%

Day after tomorrow, 5 December, Saturday

Time Temperature Precipitation Wind Pressure Humidity
00:00 +35°C° 0 mm 1 mps 713 mmHg 20%
01:00 +35°C° 0 mm 3 mps 713 mmHg 23%
02:00 +34°C° 0 mm 5 mps 713 mmHg 25%
03:00 +34°C° 0 mm 6 mps 712 mmHg 27%
04:00 +33°C° 0 mm 6 mps 713 mmHg 28%
05:00 +33°C° 0 mm 6 mps 713 mmHg 29%
06:00 +33°C° 0 mm 6 mps 714 mmHg 31%
07:00 +34°C° 0 mm 6 mps 714 mmHg 29%
08:00 +36°C° 0 mm 5 mps 715 mmHg 27%
09:00 +37°C° 0 mm 5 mps 715 mmHg 26%
10:00 +38°C° 0 mm 4 mps 715 mmHg 24%
11:00 +40°C° 0 mm 4 mps 714 mmHg 22%
12:00 +40°C° 0 mm 3 mps 714 mmHg 20%
13:00 +42°C° 0 mm 3 mps 713 mmHg 19%
14:00 +42°C° 0 mm 3 mps 713 mmHg 18%
15:00 +43°C° 0 mm 3 mps 713 mmHg 17%
16:00 +42°C° 0 mm 4 mps 713 mmHg 19%
17:00 +41°C° 0 mm 6 mps 713 mmHg 20%
18:00 +40°C° 0 mm 7 mps 713 mmHg 21%
19:00 +39°C° 0 mm 7 mps 713 mmHg 23%
20:00 +38°C° 0 mm 8 mps 713 mmHg 24%
21:00 +35°C° 0 mm 8 mps 714 mmHg 26%
22:00 +34°C° 0 mm 8 mps 714 mmHg 25%
23:00 +33°C° 0 mm 8 mps 714 mmHg 24%

6 December, Sunday

Time Temperature Precipitation Wind Pressure Humidity
00:00 +32°C° 0 mm 8 mps 715 mmHg 23%
01:00 +31°C° 0.1 mm 8 mps 715 mmHg 25%
02:00 +29°C° 0.1 mm 7 mps 715 mmHg 26%
03:00 +28°C° 0.1 mm 7 mps 715 mmHg 27%
04:00 +27°C° 0.1 mm 7 mps 715 mmHg 32%
05:00 +24°C° 0.1 mm 8 mps 715 mmHg 36%
06:00 +23°C° 0.1 mm 8 mps 715 mmHg 40%
07:00 +24°C° 0 mm 8 mps 716 mmHg 37%
08:00 +26°C° 0 mm 8 mps 716 mmHg 35%
09:00 +27°C° 0 mm 8 mps 716 mmHg 32%
10:00 +29°C° 0 mm 7 mps 716 mmHg 29%
11:00 +32°C° 0 mm 6 mps 716 mmHg 27%
12:00 +34°C° 0 mm 5 mps 716 mmHg 25%
13:00 +35°C° 0 mm 4 mps 715 mmHg 24%
14:00 +36°C° 0 mm 3 mps 715 mmHg 23%
15:00 +37°C° 0 mm 2 mps 714 mmHg 23%
16:00 +36°C° 0 mm 3 mps 714 mmHg 23%
17:00 +36°C° 0 mm 4 mps 714 mmHg 23%
18:00 +36°C° 0 mm 5 mps 714 mmHg 23%
19:00 +35°C° 0 mm 5 mps 714 mmHg 24%
20:00 +34°C° 0 mm 5 mps 715 mmHg 25%
21:00 +34°C° 0 mm 5 mps 716 mmHg 26%
22:00 +32°C° 0 mm 6 mps 716 mmHg 23%
23:00 +30°C° 0 mm 7 mps 716 mmHg 20%

7 December, Monday

Time Temperature Precipitation Wind Pressure Humidity
00:00 +29°C° 0 mm 8 mps 716 mmHg 17%
01:00 +28°C° 0 mm 7 mps 716 mmHg 18%
02:00 +27°C° 0 mm 6 mps 716 mmHg 19%
03:00 +26°C° 0 mm 5 mps 716 mmHg 20%
04:00 +26°C° 0 mm 5 mps 716 mmHg 21%
05:00 +26°C° 0 mm 6 mps 717 mmHg 22%
06:00 +24°C° 0 mm 6 mps 717 mmHg 22%
07:00 +26°C° 0 mm 7 mps 718 mmHg 21%
08:00 +27°C° 0 mm 7 mps 718 mmHg 20%
09:00 +28°C° 0 mm 8 mps 719 mmHg 19%
10:00 +29°C° 0 mm 8 mps 719 mmHg 20%
11:00 +30°C° 0 mm 7 mps 718 mmHg 20%
12:00 +32°C° 0 mm 7 mps 718 mmHg 21%
13:00 +32°C° 0 mm 7 mps 717 mmHg 21%
14:00 +33°C° 0 mm 6 mps 717 mmHg 21%
15:00 +34°C° 0 mm 6 mps 716 mmHg 21%
16:00 +34°C° 0 mm 6 mps 716 mmHg 22%
17:00 +33°C° 0 mm 6 mps 716 mmHg 22%
18:00 +33°C° 0 mm 6 mps 716 mmHg 23%
19:00 +32°C° 0 mm 6 mps 717 mmHg 25%
20:00 +30°C° 0 mm 5 mps 717 mmHg 26%
21:00 +29°C° 0 mm 5 mps 718 mmHg 28%
22:00 +28°C° 0 mm 6 mps 718 mmHg 26%
23:00 +27°C° 0 mm 7 mps 718 mmHg 25%

8 December, Tuesday

Time Temperature Precipitation Wind Pressure Humidity
00:00 +27°C° 0 mm 8 mps 718 mmHg 23%
01:00 +26°C° 0 mm 8 mps 718 mmHg 24%
02:00 +24°C° 0 mm 8 mps 718 mmHg 25%
03:00 +22°C° 0 mm 8 mps 718 mmHg 26%
04:00 +22°C° 0 mm 8 mps 719 mmHg 28%
05:00 +21°C° 0 mm 8 mps 719 mmHg 30%
06:00 +21°C° 0 mm 9 mps 720 mmHg 32%
07:00 +22°C° 0 mm 9 mps 720 mmHg 30%
08:00 +24°C° 0 mm 9 mps 720 mmHg 28%
09:00 +26°C° 0 mm 9 mps 720 mmHg 26%
10:00 +28°C° 0 mm 8 mps 720 mmHg 24%
11:00 +30°C° 0 mm 7 mps 720 mmHg 21%
12:00 +33°C° 0 mm 6 mps 719 mmHg 19%
13:00 +34°C° 0 mm 5 mps 719 mmHg 18%
14:00 +35°C° 0 mm 4 mps 718 mmHg 17%
15:00 +35°C° 0 mm 4 mps 717 mmHg 17%
16:00 +35°C° 0 mm 4 mps 717 mmHg 16%
17:00 +35°C° 0 mm 4 mps 717 mmHg 16%
18:00 +35°C° 0 mm 4 mps 717 mmHg 15%
19:00 +34°C° 0 mm 4 mps 717 mmHg 16%
20:00 +32°C° 0 mm 5 mps 718 mmHg 17%
21:00 +30°C° 0 mm 5 mps 718 mmHg 18%
22:00 +29°C° 0 mm 5 mps 718 mmHg 18%
23:00 +28°C° 0 mm 5 mps 718 mmHg 19%
Show more